AirNav   Everest Fuels
 
 1227 users online  

1MI3 Black River Ranch Airport
Onaway, Michigan, USA

GOING TO ONAWAY?


FAA INFORMATION EFFECTIVE 08 OCTOBER 2020

Location

FAA Identifier: 1MI3
Lat/Long: 45-11-45.0440N 084-19-18.0540W
45-11.750733N 084-19.300900W
45.1958456,-84.3216817
(estimated)
Elevation: 880 ft. / 268 m (estimated)
Variation: 06W (1985)
From city: 10 miles SW of ONAWAY, MI
Time zone: UTC -4 (UTC -5 during Standard Time)
Zip code: 49765

Airport Operations

Airport use: Private use. Permission required prior to landing
Activation date: 11/1948
Control tower: no
ARTCC: MINNEAPOLIS CENTER
FSS: LANSING FLIGHT SERVICE STATION
Attendance: UNATNDD
Wind indicator: no
Segmented circle: no

Airport Communications

WX ASOS at GLR (20 nm SW): 118.375 (989-732-1571)

Nearby radio navigation aids

VOR radial/distance  VOR name  Freq  Var
GLRr062/19.6GAYLORD VOR/DME109.2006W
PLNr157/29.8PELLSTON VORTAC111.8006W
APNr289/33.1ALPENA VORTAC108.8007W
CGGr035/(35.4)GRAYLING VOR109.8006W

 
NDB name  Hdg/Dist  Freq  Var  ID
GRAYLING045/34.335906WGYG --. -.-- --.

Airport Services

Airframe service: NONE
Powerplant service: NONE

Runway Information

Runway E/W

Dimensions: 3900 x 60 ft. / 1189 x 18 m
Surface: asphalt
RUNWAY E  RUNWAY W
Traffic pattern: leftleft
Obstructions: nonepline

Airport Ownership and Management from official FAA records

Ownership: Privately-owned
Manager: TIM MICHIEL
9410 CLARK BRIDGE ROAD
ONAWAY, MI 49765
Phone 989-733-8375

Airport Operational Statistics

Aircraft based on the field: 5
Single engine airplanes: 2
Multi engine airplanes: 1
Jet airplanes: 2
    

Additional Remarks

FOR CD CTC MINNEAPOLIS ARTCC AT 651-463-5588.

Instrument Procedures

There are no published instrument procedures at 1MI3.

Some nearby airports with instrument procedures:

KGLR - Gaylord Regional Airport (20 nm SW)
KPZQ - Presque Isle County Airport (25 nm NE)
KBFA - Boyne Mountain Airport (26 nm W)
N98 - Boyne City Municipal Airport (28 nm W)
KMGN - Harbor Springs Airport (29 nm NW)
 
Loc | Ops | Rwys | IFR | FBO | Links
Com | Nav | Svcs | Stats | Notes
Area around 1MI3 (Black River Ranch Airport)
 
Road maps at: MapQuest Bing Google
 
Aerial photo
No photo
 
Sectional chart

 
Airport distance calculator
Flying to Black River Ranch Airport? Find the distance to fly.

From to 1MI3

Sunrise and sunset
Times for 26-Oct-2020
 Local
(UTC-4)
 Zulu
(UTC)
Morning civil twilight07:4011:40
Sunrise08:1012:10
Sunset18:3222:32
Evening civil twilight19:0223:02

Current date and time
Zulu (UTC)  26-Oct-2020 22:24:13
Local (UTC-4)  26-Oct-2020 18:24:13
 
METAR
KGLR 
19nm SW 
262153Z AUTO 34005KT 6SM -SN OVC025 02/M02 A3017 RMK AO2 SNB52 SLP231 P0000 T00171017
KPZQ 
25nm NE 
262155Z AUTO 34004KT 10SM BKN026 OVC060 04/M01 A3019 RMK AO2 T00351009
KSLH 
28nm N 
262155Z AUTO 00000KT 10SM SCT050 04/00 A3017 RMK AO2 T00350000
KMGN 
29nm NW 
262155Z AUTO 00000KT 10SM OVC047 03/00 A3019 RMK AO2 T00311004
KPLN 
30nm NW 
262154Z AUTO 28004KT 10SM BKN049 03/M01 A3019 RMK AO2 SLP233 T00331006
KAPN 
33nm E 
262154Z AUTO 33007KT 10SM BKN060 03/02 A3018 RMK AO2 SLP226 T00330017
KGOV 
35nm SW 
262158Z AUTO 30003KT 10SM SCT037 02/00 A3017 RMK AO2 UPB03E12 SLP236 P0000 T00210003 $
TAF
KPLN 
30nm NW 
261738Z 2618/2718 34007KT P6SM VCSH BKN018 FM262000 33008KT P6SM VCSH BKN035 FM270300 00000KT P6SM BKN050 FM271600 23006KT P6SM BKN025
KAPN 
33nm E 
261738Z 2618/2718 31007KT P6SM VCSH OVC023 TEMPO 2618/2621 SCT020 BKN050 FM262100 33007KT P6SM OVC035 FM262300 31006KT P6SM BKN050 FM271200 00000KT P6SM BKN050 FM271700 24006KT P6SM BKN050
NOTAMs
Click for the latest NOTAMs
NOTAMs are issued by the DoD/FAA and will open in a separate window not controlled by AirNav.

 

 
 

Would you like to see your business listed on this page?

 If your business provides an interesting product or service to pilots, flight crews, aircraft, or users of the Black River Ranch Airport, you should consider listing it here.  To start the listing process, click on the button below
 
Add a business
 

Other Pages about Black River Ranch Airport

Update a link
 
Copyright © AirNav, LLC. All rights reserved. Privacy Policy  Contact